Location: *
(51.4660°N, 0.3360°W)
Time: 21:51:12
(UTC+00:00)

RESURS DK-1 - Pass Details

Date: 19 September 2019
Orbit: 557 x 561 km, 69.9° (Epoch: 14 October)

Event Time Altitude Azimuth Distance (km) Brightness Sun altitude
Rises 21:02:48 0° 326° (NW) 2,759 7.1 -25.9°
Reaches altitude 10° 21:05:02 10° 324° (NW) 1,858 6.0 -26.2°
Enters shadow 21:08:17 51° 303° (WNW) 708 3.1 -26.5°
